This is the latest recevied weather packets stored in our database for station/object IU0SZS-10. If no packets are shown the sender has not sent any weather packets the latest 10 day(s).
| Time | Temp. | Humidity | Pressure | Rain* | Wind** | Luminosity | Snow |
|---|---|---|---|---|---|---|---|
| 1777852808 | 10.56° C | 69% | 919.5 hPa | - | - | - | - |
| 1777851908 | 11.11° C | 68% | 919.6 hPa | - | - | - | - |
| 1777851008 | 11.11° C | 67% | 919.6 hPa | - | - | - | - |
| 1777850108 | 11.67° C | 63% | 919.6 hPa | - | - | - | - |
| 1777849208 | 12.22° C | 58% | 919.7 hPa | - | - | - | - |
| 1777848415 | 12.22° C | 57% | 919.6 hPa | - | - | - | - |
| 1777848308 | 12.22° C | 57% | 919.6 hPa | - | - | - | - |
| 1777847407 | 12.78° C | 56% | 919.8 hPa | - | - | - | - |
| 1777846507 | 12.78° C | 57% | 919.7 hPa | - | - | - | - |
| 1777845607 | 12.78° C | 56% | 919.7 hPa | - | - | - | - |
| 1777844707 | 12.78° C | 61% | 919.6 hPa | - | - | - | - |
| 1777843839 | 12.78° C | 60% | 919.6 hPa | - | - | - | - |
| 1777843807 | 12.78° C | 60% | 919.6 hPa | - | - | - | - |
| 1777842906 | 13.33° C | 59% | 919.5 hPa | - | - | - | - |
| 1777842006 | 13.33° C | 58% | 919.5 hPa | - | - | - | - |
| 1777841106 | 13.89° C | 58% | 919.1 hPa | - | - | - | - |
| 1777840206 | 13.89° C | 58% | 919.1 hPa | - | - | - | - |
| 1777839306 | 13.89° C | 58% | 919.1 hPa | - | - | - | - |
| 1777838405 | 14.44° C | 57% | 919.2 hPa | - | - | - | - |
| 1777837505 | 14.44° C | 56% | 919.2 hPa | - | - | - | - |
| 1777836605 | 14.44° C | 55% | 919 hPa | - | - | - | - |
| 1777835705 | 15° C | 53% | 919 hPa | - | - | - | - |
| 1777834805 | 15° C | 51% | 918.9 hPa | - | - | - | - |
| 1777833904 | 15.56° C | 49% | 918.8 hPa | - | - | - | - |
| 1777833038 | 15.56° C | 45% | 918.6 hPa | - | - | - | - |
* Rain since midnight (hover to see other rain measurements)
** Current wind speed in m/s (hover to see current wind gust speed)